EW7398 Weather Reports


Display with metric or nautical units.
time (UTC)temp
F
wind
direction
speed
MPH
gust
MPH
rain 1hr
in
rain 24hr
in
rain mn
in
humidity
%
barometer
mb
20260831231536 72 144 7.0 14.0 0.07 0.17 0.08 71 1009.7
20260831230115 74 169 9.0 18.0 0.00 0.10 0.00 61 1009.6
20260831224531 75 166 10.0 18.0 0.00 0.10 0.00 57 1009.5
20260831223009 76 180 12.0 19.0 0.00 0.10 0.00 56 1009.7
20260831221559 76 120 8.0 21.0 0.00 0.10 0.00 54 1009.6
20260831220038 77 150 13.0 19.0 0.00 0.10 0.00 53 1009.7
20260831214507 77 176 12.0 22.0 0.00 0.10 0.00 53 1009.8
20260831213053 77 360 12.0 22.0 0.00 0.10 0.00 53 1010.0
20260831211537 77 360 12.0 21.0 0.00 0.10 0.00 57 1010.2
20260831210113 76 360 10.0 21.0 0.00 0.10 0.00 58 1010.4
20260831204529 74 153 14.0 22.0 0.00 0.10 0.00 61 1010.8
20260831203007 73 148 12.0 20.0 0.00 0.10 0.00 62 1010.9
20260831201551 73 126 12.0 21.0 0.00 0.10 0.00 65 1010.8
20260831200037 72 134 10.0 20.0 0.00 0.10 0.00 67 1010.8
20260831194616 72 135 11.0 17.0 0.00 0.10 0.00 68 1011.0
20260831193034 72 181 9.0 16.0 0.00 0.10 0.00 68 1011.1
20260831191518 72 175 8.0 15.0 0.00 0.10 0.00 69 1011.2
20260831184517 72 167 12.0 20.0 0.00 0.10 0.00 69 1011.6
20260831183105 71 167 11.0 17.0 0.00 0.10 0.00 70 1011.6
20260831181543 71 167 13.0 24.0 0.00 0.10 0.00 71 1011.5
20260831180126 71 121 15.0 27.0 0.00 0.10 0.00 72 1011.3
20260831174535 70 188 13.0 22.0 0.00 0.10 0.00 74 1011.2
20260831173018 70 141 11.0 22.0 0.00 0.10 0.00 75 1011.2
20260831171553 69 165 15.0 25.0 0.00 0.10 0.00 73 1011.3
20260831170041 68 165 15.0 25.0 0.00 0.10 0.00 74 1011.1
20260831164549 67 142 13.0 25.0 0.00 0.10 0.00 74 1011.1
20260831163031 66 121 13.0 23.0 0.00 0.10 0.00 77 1010.9
20260831161505 65 164 13.0 21.0 0.00 0.10 0.00 80 1010.7
20260831160051 64 143 11.0 23.0 0.00 0.10 0.00 79 1010.6
20260831154601 64 112 11.0 19.0 0.00 0.10 0.00 80 1010.4
20260831154509 64 157 11.0 19.0 0.00 0.10 0.00 80 1010.3
20260831153050 64 176 6.0 10.0 0.00 0.10 0.00 80 1010.4
20260831151531 64 120 7.0 11.0 0.00 0.10 0.00 83 1009.8
20260831144518 61 186 1.0 3.0 0.00 0.10 0.00 90 1010.1
20260831143101 60 186 0.0 3.0 0.00 0.10 0.00 90 1010.0
20260831143002 60 186 0.0 3.0 0.00 0.10 0.00 90 1010.0
20260831141538 59 186 0.0 3.0 0.00 0.10 0.00 90 1009.8
20260831140114 59 186 1.0 4.0 0.00 0.10 0.00 90 1009.4
20260831134534 58 186 1.0 3.0 0.00 0.10 0.00 89 1009.2
20260831133026 58 186 0.0 0.0 0.00 0.10 0.00 88 1009.0
20260831131556 58 186 0.0 0.0 0.00 0.10 0.00 88 1009.1
20260831130012 58 186 0.0 2.0 0.00 0.10 0.00 88 1008.8
20260831124603 58 186 0.0 2.0 0.00 0.10 0.00 87 1008.6
20260831123038 58 186 1.0 4.0 0.00 0.10 0.00 87 1008.4
20260831121512 59 186 0.0 3.0 0.00 0.10 0.00 86 1008.2
20260831120055 59 186 0.0 0.0 0.00 0.10 0.00 86 1007.9
20260831114522 59 186 1.0 4.0 0.00 0.10 0.00 86 1007.7
20260831113054 60 186 1.0 3.0 0.00 0.10 0.00 86 1007.6
20260831111539 60 186 0.0 2.0 0.00 0.10 0.00 85 1007.7
20260831110118 60 187 0.0 2.0 0.00 0.10 0.00 85 1007.8
20260831104546 61 187 1.0 3.0 0.00 0.10 0.00 86 1007.6
20260831103022 61 188 1.0 3.0 0.00 0.10 0.00 85 1007.8
20260831101558 61 188 1.0 4.0 0.00 0.10 0.00 85 1007.9
20260831100050 62 188 0.0 1.0 0.00 0.10 0.00 85 1008.2
20260831094557 62 188 0.0 2.0 0.00 0.10 0.10 85 1008.6
20260831093047 62 188 1.0 7.0 0.00 0.10 0.10 85 1009.0
20260831091524 62 186 3.0 8.0 0.00 0.10 0.10 86 1009.1
20260831090112 62 180 4.0 10.0 0.00 0.10 0.10 86 1009.2
20260831084535 62 0.0 0.0 0.00 0.10 0.10 87 1008.6
20260831083043 62 0.0 0.0 0.00 0.10 0.10 87 1008.6
20260831081509 63 0.0 0.0 0.01 0.10 0.10 86 1008.9
20260831080051 63 0.0 0.0 0.01 0.10 0.10 83 1008.9
20260831074553 64 0.0 0.0 0.06 0.10 0.10 82 1008.6
20260831073029 65 0.0 0.0 0.10 0.10 0.10 82 1008.1
20260831071542 67 0.0 0.0 0.09 0.09 0.09 84 1008.3
20260831070120 67 0.0 0.0 0.09 0.09 0.09 70 1008.6
20260831064530 70 124 13.0 21.0 0.04 0.04 0.04 64 1008.2
20260831063006 72 177 7.0 10.0 0.00 0.00 0.00 75 1007.7
20260831061549 72 156 3.0 8.0 0.00 0.00 0.00 71 1007.1
20260831060018 72 124 2.0 4.0 0.00 0.00 0.00 69 1007.0
20260831054604 72 124 2.0 4.0 0.00 0.00 0.00 68 1007.2
20260831054506 72 124 2.0 4.0 0.00 0.00 0.00 68 1007.2
20260831053040 72 124 2.0 4.0 0.00 0.00 0.00 68 1007.3
20260831051540 73 124 2.0 3.0 0.00 0.00 0.00 68 1007.1
20260831050110 73 124 2.0 4.0 0.00 0.00 0.00 68 1006.9
20260831044536 73 124 3.0 7.0 0.00 0.00 0.00 68 1007.0
20260831043030 74 157 3.0 7.0 0.00 0.00 0.00 66 1007.3
20260831041520 74 161 4.0 7.0 0.00 0.00 0.00 65 1007.2
20260831040056 75 143 2.0 4.0 0.00 0.00 0.00 64 1007.2
20260831034529 75 190 2.0 5.0 0.00 0.00 0.00 63 1007.6
20260831033020 76 196 2.0 3.0 0.00 0.00 0.00 62 1007.2
20260831031514 76 276 0.0 3.0 0.00 0.00 0.00 59 1006.7
20260831024526 77 323 1.0 3.0 0.00 0.01 0.00 57 1006.5
20260831023051 78 323 1.0 3.0 0.00 0.01 0.00 56 1006.5
20260831021554 79 323 1.0 3.0 0.00 0.01 0.00 55 1006.6
20260831020008 79 275 2.0 3.0 0.00 0.01 0.00 52 1006.7
20260831014607 80 274 0.0 0.0 0.00 0.06 0.00 50 1006.7
20260831013047 80 274 2.0 6.0 0.00 0.06 0.00 50 1006.6
20260831011520 81 252 3.0 8.0 0.00 0.06 0.00 48 1006.7
20260831010057 81 256 3.0 7.0 0.00 0.06 0.00 47 1006.5
20260831004524 82 265 4.0 8.0 0.00 0.06 0.00 46 1006.5
20260831003009 83 252 5.0 11.0 0.00 0.06 0.00 44 1006.5
20260831001605 83 252 7.0 12.0 0.00 0.06 0.00 43 1006.2
20260831000045 84 237 4.0 10.0 0.00 0.06 0.00 42 1006.1
20260830234551 84 247 7.0 13.0 0.00 0.06 0.00 41 1006.4
20260830233038 85 197 7.0 12.0 0.00 0.06 0.00 40 1006.4